Regional Weather Roundup
Issued by NWS

Home | Current Version | Previous Version | Text Only | Print | Product List | Glossary On
Versions: 1 2 3 4 5 6 7 8 9 10 11 12 13 14 15 16 17 18 19 20 21 22 23 24 25 26 27 28 29 30 31 32 33 34 35 36 37 38 39 40 41 42 43 44 45 46 47 48 49 50
000
ASUS43 KMKX 260600
RWRWI

WISCONSIN REGIONAL WEATHER ROUNDUP
NATIONAL WEATHER SERVICE MILWAUKEE/SULLIVAN WI
100 AM CDT TUE JUL 26 2016

NOTE: "FAIR" INDICATES FEW OR NO CLOUDS BELOW 12,000 FEET WITH NO
SIGNIFICANT WEATHER AND/OR OBSTRUCTIONS TO VISIBILITY.

WIZ001-002-006>008-014>016-023>028-260700-
NORTHWEST WISCONSIN

CITY           SKY/WX    TMP DP  RH WIND       PRES   REMARKS
SUPERIOR ARPT  CLEAR     69  65  89 SW6       29.99R
ASHLAND        CLEAR     69  64  84 SW7       30.00S
6HR MIN TEMP:  65; 6HR MAX TEMP:  82;

HAYWARD        CLEAR     63  61  93 CALM      30.04S
6HR MIN TEMP:  63; 6HR MAX TEMP:  82;

SIREN          CLEAR     66  64  94 CALM      30.03S
CUMBERLAND     CLEAR     63  61  94 CALM      30.05S
RICE LAKE      CLEAR     64  62  94 CALM      30.06S FOG
CHETEK         CLEAR     65  65  98 CALM      30.05R
LADYSMITH      CLEAR     64  62  93 CALM      30.07R
EAU CLAIRE     NOT AVBL
MENOMONIE      CLEAR     67  61  80 CALM      30.05S
NEW RICHMOND   CLEAR     66  65  97 CALM      30.05S
OSCEOLA        CLEAR     67  67 100 CALM      30.06S
$$

WIZ003>005-009-010-017-018-260700-
NORTH CENTRAL WISCONSIN

CITY           SKY/WX    TMP DP  RH WIND       PRES   REMARKS
MANITOWISH WTR CLEAR     58  58 100 CALM      30.04S
ARBOR VITAE    CLEAR     63  61  92 CALM      30.06S
WOODRUFF       CLEAR     63  61  92 CALM      30.06S
RHINELANDER    MOCLDY    63  60  90 W5        30.07S
6HR MIN TEMP:  58; 6HR MAX TEMP:  79;

EAGLE RIVER    CLEAR     58  58 100 SW6       30.05S
LAND O LAKES   CLEAR     56  55  97 CALM      30.06R
PHILLIPS       CLEAR     62  60  96 CALM      30.05S
TOMAHAWK       CLEAR     57  56  95 CALM      30.07R
MEDFORD        CLEAR     59  59 100 CALM      30.07S
MERRILL        CLEAR     59  59 100 CALM      30.07S
$$

WIZ029-030-035-036-043>047-260700-
CENTRAL WISCONSIN

CITY           SKY/WX    TMP DP  RH WIND       PRES   REMARKS
WAUSAU         CLEAR     65  62  90 CALM      30.05R
6HR MIN TEMP:  65; 6HR MAX TEMP:  81;

MOSINEE        CLEAR     64  63  94 W5        30.07S
MARSHFIELD     CLEAR     65  60  84 CALM      30.06S
6HR MIN TEMP:  64; 6HR MAX TEMP:  80;

STEVENS POINT  CLEAR     61  60  96 CALM      30.06S
WAUPACA        CLEAR     69  65  86 CALM      30.04S
WAUTOMA        CLEAR     63  62  97 CALM      30.06R
6HR MIN TEMP:  63; 6HR MAX TEMP:  81;

WISC RAPIDS    CLEAR     65  61  87 CALM      30.07R
6HR MIN TEMP:  64; 6HR MAX TEMP:  82;

CAMP DOUGLAS   FOG       59  59 100 CALM      30.06S VSB 1/2
$$

WIZ011>013-019>022-031-037>040-048>050-260700-
NORTHEAST WISCONSIN

CITY           SKY/WX    TMP DP  RH WIND       PRES   REMARKS
ANTIGO         CLEAR     60  59  96 CALM      30.07S
SHAWANO        CLEAR     65  61  87 CALM      30.04R
OCONTO         CLEAR     64  64 100 CALM      30.01S
STURGEON BAY   CLEAR     69  64  84 CALM      30.03R
6HR MIN TEMP:  67; 6HR MAX TEMP:  81;

GREEN BAY      CLEAR     67  64  90 W7        30.02R
6HR MIN TEMP:  64; 6HR MAX TEMP:  81;

MANITOWOC      NOT AVBL
APPLETON       CLEAR     66  59  77 W8        30.03R
CLINTONVILLE   CLEAR     66  61  82 W5        30.03S
OSHKOSH        CLEAR     69  61  75 W5        30.03S
6HR MIN TEMP:  69; 6HR MAX TEMP:  82;

$$

WIZ032>034-041-042-053>061-260700-
SOUTHWEST WISCONSIN

CITY           SKY/WX    TMP DP  RH WIND       PRES   REMARKS
LA CROSSE      PTCLDY    70  66  87 SE5       30.05S
6HR MIN TEMP:  70; 6HR MAX TEMP:  84;

SPARTA         PTCLDY    61  61  99 CALM      30.07S
VIROQUA        PTCLDY    65  64  98 CALM      30.08S
BOSCOBEL       FOG       64  63  96 CALM      30.06S VSB 1/4
6HR MIN TEMP:  64; 6HR MAX TEMP:  83;

PRAIRIE DU CHI CLEAR     66  64  91 CALM      30.06S
PLATTEVILLE    CLEAR     68  66  96 CALM      30.07S
$$

WIZ056-057-062-063-064-067-068-260700-
SOUTH CENTRAL WISCONSIN

CITY           SKY/WX    TMP DP  RH WIND       PRES   REMARKS
REEDSBURG      CLEAR     66  66  99 CALM      30.06S
BARABOO/DELLS  CLEAR     65  63  92 CALM      30.07R
LONE ROCK      CLEAR     63  62  97 CALM      30.06S FOG
MINERAL POINT  CLEAR     68  64  88 N3        30.07S
MADISON        CLEAR     67  65  93 CALM      30.05R
6HR MIN TEMP:  67; 6HR MAX TEMP:  83;

MIDDLETON      CLEAR     66  66 100 CALM      30.06S
WATERTOWN      CLEAR     65  65 100 CALM      30.04S
MONROE         CLEAR     72  63  73 NW7       30.06S
JANESVILLE     CLEAR     68  68 100 CALM      30.05R FOG
$$

WIZ051-052-058>065-066-070>072-260700-
SOUTHEAST WISCONSIN

CITY           SKY/WX    TMP DP  RH WIND       PRES   REMARKS
MILWAUKEE      CLEAR     75  64  68 W3        30.03S
6HR MIN TEMP:  73; 6HR MAX TEMP:  81;

WAUKESHA       CLEAR     66  63  88 CALM      30.05S
MILWAUKEE/TIMM CLEAR     70  59  68 CALM      30.04S
RACINE         CLEAR     69  62  78 CALM      30.05R
6HR MIN TEMP:  69; 6HR MAX TEMP:  81;

BURLINGTON     CLEAR     64  63  97 CALM      30.04S
KENOSHA        CLEAR     66  62  87 SW3       30.04R
6HR MIN TEMP:  66; 6HR MAX TEMP:  81;

FOND DU LAC    CLEAR     70  61  73 W6        30.04R
6HR MIN TEMP:  68; 6HR MAX TEMP:  82;

SHEBOYGAN      CLEAR     64  61  90 W3        30.03S
6HR MIN TEMP:  63; 6HR MAX TEMP:  81;

WEST BEND      CLEAR     64  63  94 CALM      30.04S
JUNEAU         CLEAR     65  63  95 CALM      30.06R
$$

LSZ147-162-260700-
LAKE SUPERIOR

STATION/POSITION TIME  TEMP    WIND        PRES    WAVE
                       AIR SEA DIR/SP/G            HT/PER
                 (UTC) (F)     (DEG/KT/KT) (MB)    (FT/S)
W MID LAKE BUOY  0450   64 60  220/  6/  6 1013.7S   1/ 3
DEVILS ISLAND    0500   71     240/ 12/ 14 1014.5R
SAXON HARBOR     0540   70     200/  7/ 10 1014.9S
$$

LMZ867-665-643>646-260700-
LAKE MICHIGAN

STATION/POSITION TIME  TEMP    WIND        PRES    WAVE
                       AIR SEA DIR/SP/G            HT/PER
                 (UTC) (F)     (DEG/KT/KT) (MB)    (FT/S)
CHAMBERS ISLAND  0500   70     260/  4/  6 1015.9R
S GREEN BAY BUOY 0500   73 74  280/  8/  8   N/A
N MID LAKE BUOY  0450   71 70  170/  6/  8 1015.1R   1
NORTHPORT PIER   0500   70      CALM  /  1 1015.6R
SISTER BAY       0521   69        CALM       N/A
ALGOMA LAKESHORE 0513             CALM       N/A
KEWAUNEE LAKESHO 0500   69     300/  4/  6 1015.5R
SHEBOYGAN LAKESH 0500   74     270/  6/  7 1016.4R
PORT WASHINGTON  0540   73     290/  5/  7 1017.3R
ATWATER BUOY     0500   60 53  250/  2/  2 1018.2R
MILWAUKEE LAKESH 0510   71     330/  1/  1   N/A
S MID LAKE BUOY  0450   74 74  230/  4/  4 1016.0R   0
KENOSHA   LAKESH 0500   74     230/  2/  4 1016.3S
$$

TC  - TEMPERATURE IN CELSIUS
VSB - VISIBILITY IN STATUTE MILES
WCI - WIND CHILL INDEX
HX  - HEAT INDEX




USA.gov is the U.S. government's official web portal to all federal, state and local government web resources and services.